﻿測定場所 (Monitoring sites),日付 (Measurement date),時間 (Measurement time),線量率 最大値 (max) μGy/h,線量率 最小値 (min) μGy/h,線量率 平均値 (average) μGy/h,
江戸川 (Edogawa),2014-12-07,23:01～24:00,0.0709,0.0642,0.0672,
江戸川 (Edogawa),2014-12-07,22:01～23:00,0.0712,0.0636,0.0672,
江戸川 (Edogawa),2014-12-07,21:01～22:00,0.0706,0.0633,0.0671,
江戸川 (Edogawa),2014-12-07,20:01～21:00,0.0702,0.0635,0.0668,
江戸川 (Edogawa),2014-12-07,19:01～20:00,0.0708,0.0635,0.0671,
江戸川 (Edogawa),2014-12-07,18:01～19:00,0.0697,0.0632,0.0667,
江戸川 (Edogawa),2014-12-07,17:01～18:00,0.0700,0.0638,0.0667,
江戸川 (Edogawa),2014-12-07,16:01～17:00,0.0705,0.0632,0.0672,
江戸川 (Edogawa),2014-12-07,15:01～16:00,0.0710,0.0633,0.0674,
江戸川 (Edogawa),2014-12-07,14:01～15:00,0.0717,0.0636,0.0677,
江戸川 (Edogawa),2014-12-07,13:01～14:00,0.0701,0.0636,0.0673,
江戸川 (Edogawa),2014-12-07,12:01～13:00,0.0725,0.0636,0.0679,
江戸川 (Edogawa),2014-12-07,11:01～12:00,0.0726,0.0635,0.0675,
江戸川 (Edogawa),2014-12-07,10:01～11:00,0.0715,0.0640,0.0677,
江戸川 (Edogawa),2014-12-07,09:01～10:00,0.0715,0.0637,0.0677,
江戸川 (Edogawa),2014-12-07,08:01～09:00,0.0712,0.0642,0.0672,
江戸川 (Edogawa),2014-12-07,07:01～08:00,0.0709,0.0633,0.0674,
江戸川 (Edogawa),2014-12-07,06:01～07:00,0.0709,0.0632,0.0671,
江戸川 (Edogawa),2014-12-07,05:01～06:00,0.0717,0.0621,0.0668,
江戸川 (Edogawa),2014-12-07,04:01～05:00,0.0703,0.0637,0.0672,
江戸川 (Edogawa),2014-12-07,03:01～04:00,0.0696,0.0638,0.0671,
江戸川 (Edogawa),2014-12-07,02:01～03:00,0.0714,0.0642,0.0670,
江戸川 (Edogawa),2014-12-07,01:01～02:00,0.0704,0.0638,0.0670,
江戸川 (Edogawa),2014-12-07,00:01～01:00,0.0733,0.0635,0.0673,
江戸川 (Edogawa),2014-12-06,23:01～24:00,0.0702,0.0628,0.0669,
江戸川 (Edogawa),2014-12-06,22:01～23:00,0.0712,0.0632,0.0669,
江戸川 (Edogawa),2014-12-06,21:01～22:00,0.0710,0.0636,0.0671,
江戸川 (Edogawa),2014-12-06,20:01～21:00,0.0714,0.0640,0.0678,
江戸川 (Edogawa),2014-12-06,19:01～20:00,0.0718,0.0617,0.0671,
江戸川 (Edogawa),2014-12-06,18:01～19:00,0.0709,0.0634,0.0671,
江戸川 (Edogawa),2014-12-06,17:01～18:00,0.0711,0.0620,0.0672,
江戸川 (Edogawa),2014-12-06,16:01～17:00,0.0698,0.0631,0.0671,
江戸川 (Edogawa),2014-12-06,15:01～16:00,0.0738,0.0636,0.0672,
江戸川 (Edogawa),2014-12-06,14:01～15:00,0.0725,0.0629,0.0680,
江戸川 (Edogawa),2014-12-06,13:01～14:00,0.0719,0.0644,0.0679,
江戸川 (Edogawa),2014-12-06,12:01～13:00,0.0723,0.0652,0.0681,
江戸川 (Edogawa),2014-12-06,11:01～12:00,0.0714,0.0642,0.0677,
江戸川 (Edogawa),2014-12-06,10:01～11:00,0.0718,0.0638,0.0674,
江戸川 (Edogawa),2014-12-06,09:01～10:00,0.0716,0.0631,0.0675,
江戸川 (Edogawa),2014-12-06,08:01～09:00,0.0710,0.0637,0.0666,
江戸川 (Edogawa),2014-12-06,07:01～08:00,0.0704,0.0637,0.0666,
江戸川 (Edogawa),2014-12-06,06:01～07:00,0.0703,0.0635,0.0664,
江戸川 (Edogawa),2014-12-06,05:01～06:00,0.0707,0.0629,0.0665,
江戸川 (Edogawa),2014-12-06,04:01～05:00,0.0697,0.0635,0.0666,
江戸川 (Edogawa),2014-12-06,03:01～04:00,0.0695,0.0629,0.0663,
江戸川 (Edogawa),2014-12-06,02:01～03:00,0.0698,0.0634,0.0663,
江戸川 (Edogawa),2014-12-06,01:01～02:00,0.0704,0.0623,0.0670,
江戸川 (Edogawa),2014-12-06,00:01～01:00,0.0715,0.0626,0.0665,
江戸川 (Edogawa),2014-12-05,23:01～24:00,0.0710,0.0630,0.0666,
江戸川 (Edogawa),2014-12-05,22:01～23:00,0.0703,0.0631,0.0666,
江戸川 (Edogawa),2014-12-05,21:01～22:00,0.0701,0.0642,0.0668,
江戸川 (Edogawa),2014-12-05,20:01～21:00,0.0703,0.0636,0.0664,
江戸川 (Edogawa),2014-12-05,19:01～20:00,0.0693,0.0631,0.0664,
江戸川 (Edogawa),2014-12-05,18:01～19:00,0.0726,0.0625,0.0674,
江戸川 (Edogawa),2014-12-05,17:01～18:00,0.0706,0.0633,0.0668,
江戸川 (Edogawa),2014-12-05,16:01～17:00,0.0707,0.0632,0.0669,
江戸川 (Edogawa),2014-12-05,15:01～16:00,0.0709,0.0648,0.0681,
江戸川 (Edogawa),2014-12-05,14:01～15:00,0.0720,0.0649,0.0678,
江戸川 (Edogawa),2014-12-05,13:01～14:00,0.0719,0.0647,0.0677,
江戸川 (Edogawa),2014-12-05,12:01～13:00,0.0730,0.0639,0.0680,
江戸川 (Edogawa),2014-12-05,11:01～12:00,0.0716,0.0647,0.0679,
江戸川 (Edogawa),2014-12-05,10:01～11:00,0.0710,0.0639,0.0676,
江戸川 (Edogawa),2014-12-05,09:01～10:00,0.0704,0.0638,0.0675,
江戸川 (Edogawa),2014-12-05,08:01～09:00,0.0703,0.0636,0.0664,
江戸川 (Edogawa),2014-12-05,07:01～08:00,0.0719,0.0629,0.0669,
江戸川 (Edogawa),2014-12-05,06:01～07:00,0.0699,0.0626,0.0668,
江戸川 (Edogawa),2014-12-05,05:01～06:00,0.0695,0.0639,0.0667,
江戸川 (Edogawa),2014-12-05,04:01～05:00,0.0709,0.0634,0.0668,
江戸川 (Edogawa),2014-12-05,03:01～04:00,0.0696,0.0627,0.0667,
江戸川 (Edogawa),2014-12-05,02:01～03:00,0.0706,0.0625,0.0672,
江戸川 (Edogawa),2014-12-05,01:01～02:00,0.0697,0.0633,0.0668,
江戸川 (Edogawa),2014-12-05,00:01～01:00,0.0700,0.0630,0.0669,
江戸川 (Edogawa),2014-12-04,23:01～24:00,0.0709,0.0632,0.0668,
江戸川 (Edogawa),2014-12-04,22:01～23:00,0.0700,0.0644,0.0668,
江戸川 (Edogawa),2014-12-04,21:01～22:00,0.0701,0.0633,0.0671,
江戸川 (Edogawa),2014-12-04,20:01～21:00,0.0736,0.0636,0.0684,
江戸川 (Edogawa),2014-12-04,19:01～20:00,0.0761,0.0664,0.0707,
江戸川 (Edogawa),2014-12-04,18:01～19:00,0.0792,0.0690,0.0734,
江戸川 (Edogawa),2014-12-04,17:01～18:00,0.0791,0.0712,0.0746,
江戸川 (Edogawa),2014-12-04,16:01～17:00,0.0798,0.0694,0.0738,
江戸川 (Edogawa),2014-12-04,15:01～16:00,0.0799,0.0694,0.0746,
江戸川 (Edogawa),2014-12-04,14:01～15:00,0.0792,0.0692,0.0732,
江戸川 (Edogawa),2014-12-04,13:01～14:00,0.0868,0.0730,0.0791,
江戸川 (Edogawa),2014-12-04,12:01～13:00,0.0879,0.0724,0.0781,
江戸川 (Edogawa),2014-12-04,11:01～12:00,0.0733,0.0633,0.0682,
江戸川 (Edogawa),2014-12-04,10:01～11:00,0.0696,0.0629,0.0668,
江戸川 (Edogawa),2014-12-04,09:01～10:00,0.0726,0.0650,0.0673,
江戸川 (Edogawa),2014-12-04,08:01～09:00,0.0708,0.0642,0.0668,
江戸川 (Edogawa),2014-12-04,07:01～08:00,0.0709,0.0636,0.0668,
江戸川 (Edogawa),2014-12-04,06:01～07:00,0.0704,0.0639,0.0668,
江戸川 (Edogawa),2014-12-04,05:01～06:00,0.0704,0.0633,0.0669,
江戸川 (Edogawa),2014-12-04,04:01～05:00,0.0723,0.0636,0.0668,
江戸川 (Edogawa),2014-12-04,03:01～04:00,0.0699,0.0637,0.0665,
江戸川 (Edogawa),2014-12-04,02:01～03:00,0.0706,0.0640,0.0667,
江戸川 (Edogawa),2014-12-04,01:01～02:00,0.0701,0.0633,0.0667,
江戸川 (Edogawa),2014-12-04,00:01～01:00,0.0705,0.0638,0.0667,
江戸川 (Edogawa),2014-12-03,23:01～24:00,0.0704,0.0630,0.0669,
江戸川 (Edogawa),2014-12-03,22:01～23:00,0.0687,0.0635,0.0665,
江戸川 (Edogawa),2014-12-03,21:01～22:00,0.0712,0.0629,0.0663,
江戸川 (Edogawa),2014-12-03,20:01～21:00,0.0699,0.0635,0.0669,
江戸川 (Edogawa),2014-12-03,19:01～20:00,0.0722,0.0634,0.0670,
江戸川 (Edogawa),2014-12-03,18:01～19:00,0.0704,0.0645,0.0672,
江戸川 (Edogawa),2014-12-03,17:01～18:00,0.0714,0.0635,0.0668,
江戸川 (Edogawa),2014-12-03,16:01～17:00,0.0730,0.0639,0.0671,
江戸川 (Edogawa),2014-12-03,15:01～16:00,0.0711,0.0631,0.0674,
江戸川 (Edogawa),2014-12-03,14:01～15:00,0.0712,0.0647,0.0675,
江戸川 (Edogawa),2014-12-03,13:01～14:00,0.0713,0.0637,0.0671,
江戸川 (Edogawa),2014-12-03,12:01～13:00,0.0728,0.0633,0.0677,
江戸川 (Edogawa),2014-12-03,11:01～12:00,0.0715,0.0642,0.0672,
江戸川 (Edogawa),2014-12-03,10:01～11:00,0.0717,0.0624,0.0668,
江戸川 (Edogawa),2014-12-03,09:01～10:00,0.0695,0.0626,0.0663,
江戸川 (Edogawa),2014-12-03,08:01～09:00,0.0691,0.0619,0.0659,
江戸川 (Edogawa),2014-12-03,07:01～08:00,0.0698,0.0632,0.0666,
江戸川 (Edogawa),2014-12-03,06:01～07:00,0.0694,0.0633,0.0661,
江戸川 (Edogawa),2014-12-03,05:01～06:00,0.0713,0.0630,0.0670,
江戸川 (Edogawa),2014-12-03,04:01～05:00,0.0699,0.0628,0.0663,
江戸川 (Edogawa),2014-12-03,03:01～04:00,0.0692,0.0626,0.0662,
江戸川 (Edogawa),2014-12-03,02:01～03:00,0.0692,0.0634,0.0663,
江戸川 (Edogawa),2014-12-03,01:01～02:00,0.0705,0.0630,0.0663,
江戸川 (Edogawa),2014-12-03,00:01～01:00,0.0731,0.0629,0.0664,
江戸川 (Edogawa),2014-12-02,23:01～24:00,0.0688,0.0620,0.0662,
江戸川 (Edogawa),2014-12-02,22:01～23:00,0.0693,0.0619,0.0660,
江戸川 (Edogawa),2014-12-02,21:01～22:00,0.0703,0.0631,0.0664,
江戸川 (Edogawa),2014-12-02,20:01～21:00,0.0702,0.0619,0.0663,
江戸川 (Edogawa),2014-12-02,19:01～20:00,0.0719,0.0625,0.0666,
江戸川 (Edogawa),2014-12-02,18:01～19:00,0.0717,0.0641,0.0671,
江戸川 (Edogawa),2014-12-02,17:01～18:00,0.0716,0.0631,0.0668,
江戸川 (Edogawa),2014-12-02,16:01～17:00,0.0695,0.0589,0.0670,
江戸川 (Edogawa),2014-12-02,15:01～16:00,0.0714,0.0641,0.0674,
江戸川 (Edogawa),2014-12-02,14:01～15:00,0.0710,0.0645,0.0679,
江戸川 (Edogawa),2014-12-02,13:01～14:00,0.0716,0.0642,0.0677,
江戸川 (Edogawa),2014-12-02,12:01～13:00,0.0715,0.0644,0.0675,
江戸川 (Edogawa),2014-12-02,11:01～12:00,0.0704,0.0632,0.0672,
江戸川 (Edogawa),2014-12-02,10:01～11:00,0.0707,0.0636,0.0673,
江戸川 (Edogawa),2014-12-02,09:01～10:00,0.0723,0.0628,0.0665,
江戸川 (Edogawa),2014-12-02,08:01～09:00,0.0699,0.0632,0.0665,
江戸川 (Edogawa),2014-12-02,07:01～08:00,0.0708,0.0639,0.0668,
江戸川 (Edogawa),2014-12-02,06:01～07:00,0.0700,0.0628,0.0663,
江戸川 (Edogawa),2014-12-02,05:01～06:00,0.0699,0.0636,0.0669,
江戸川 (Edogawa),2014-12-02,04:01～05:00,0.0711,0.0631,0.0667,
江戸川 (Edogawa),2014-12-02,03:01～04:00,0.0725,0.0635,0.0665,
江戸川 (Edogawa),2014-12-02,02:01～03:00,0.0700,0.0630,0.0666,
江戸川 (Edogawa),2014-12-02,01:01～02:00,0.0705,0.0623,0.0670,
江戸川 (Edogawa),2014-12-02,00:01～01:00,0.0711,0.0632,0.0668,
江戸川 (Edogawa),2014-12-01,23:01～24:00,0.0698,0.0639,0.0670,
江戸川 (Edogawa),2014-12-01,22:01～23:00,0.0716,0.0632,0.0668,
江戸川 (Edogawa),2014-12-01,21:01～22:00,0.0727,0.0623,0.0666,
江戸川 (Edogawa),2014-12-01,20:01～21:00,0.0693,0.0627,0.0661,
江戸川 (Edogawa),2014-12-01,19:01～20:00,0.0696,0.0638,0.0667,
江戸川 (Edogawa),2014-12-01,18:01～19:00,0.0695,0.0637,0.0664,
江戸川 (Edogawa),2014-12-01,17:01～18:00,0.0719,0.0645,0.0677,
江戸川 (Edogawa),2014-12-01,16:01～17:00,0.0733,0.0651,0.0698,
江戸川 (Edogawa),2014-12-01,15:01～16:00,0.0782,0.0671,0.0728,
江戸川 (Edogawa),2014-12-01,14:01～15:00,0.0719,0.0639,0.0676,
江戸川 (Edogawa),2014-12-01,13:01～14:00,0.0712,0.0630,0.0669,
江戸川 (Edogawa),2014-12-01,12:01～13:00,0.0717,0.0651,0.0677,
江戸川 (Edogawa),2014-12-01,11:01～12:00,0.0724,0.0655,0.0690,
江戸川 (Edogawa),2014-12-01,10:01～11:00,0.0743,0.0673,0.0721,
江戸川 (Edogawa),2014-12-01,09:01～10:00,0.0781,0.0696,0.0728,
江戸川 (Edogawa),2014-12-01,08:01～09:00,0.0756,0.0654,0.0708,
江戸川 (Edogawa),2014-12-01,07:01～08:00,0.0709,0.0633,0.0670,
江戸川 (Edogawa),2014-12-01,06:01～07:00,0.0695,0.0642,0.0669,
江戸川 (Edogawa),2014-12-01,05:01～06:00,0.0724,0.0640,0.0678,
江戸川 (Edogawa),2014-12-01,04:01～05:00,0.0769,0.0663,0.0711,
江戸川 (Edogawa),2014-12-01,03:01～04:00,0.0813,0.0714,0.0756,
江戸川 (Edogawa),2014-12-01,02:01～03:00,0.0792,0.0665,0.0722,
江戸川 (Edogawa),2014-12-01,01:01～02:00,0.0735,0.0654,0.0692,
江戸川 (Edogawa),2014-12-01,00:01～01:00,0.0782,0.0666,0.0726,
